Volver al catálogo

DELTA 1 DEB

ActivoSSO
NORAD 7038·DEBRIS·🇺🇸 United States

Lanzado Nov 6, 1973 desde Vandenberg Space Force Base

Loading…

Próximos Pases (próximas 24 horas)

TLE

ActualizadoSource: Space-Track

Época: Sep 12, 2026, 17:20 UTC

1 07038U 73086AE  26255.72270899  .00000057  00000-0  88035-3 0  9995
2 07038 101.8975  76.3380 0128838 343.3977  77.2205 12.24469020357226

Sigue DELTA 1 DEB en tiempo real con AllMySat

Download on the App Store